Time,TemperatureF,DewpointF,PressureIn,WindDirection,WindDirectionDegrees,WindSpeedMPH,WindSpeedGustMPH,Humidity,HourlyPrecipIn,Conditions,Clouds,dailyrainin,SoftwareType,DateUTC
2013-01-09 00:00:00,61.6,59.9,30.24,NNW,329,0.0,0.0,94,0.00,,,0.00,Wunderground v.1.15,2013-01-09 05:00:00,
2013-01-09 00:05:00,61.4,59.7,30.24,NNW,329,0.0,0.0,94,0.00,,,0.00,Wunderground v.1.15,2013-01-09 05:05:00,
2013-01-09 00:15:00,61.3,59.6,30.24,NNW,329,0.0,0.0,94,0.00,,,0.00,Wunderground v.1.15,2013-01-09 05:15:00,
2013-01-09 00:20:00,61.3,59.6,30.24,NNW,329,0.0,0.0,94,0.00,,,0.00,Wunderground v.1.15,2013-01-09 05:20:00,
2013-01-09 00:30:00,61.4,59.7,30.24,NNW,329,0.0,0.0,94,0.00,,,0.00,Wunderground v.1.15,2013-01-09 05:30:00,
2013-01-09 00:35:00,61.5,59.8,30.24,NNW,329,0.0,0.0,94,0.00,,,0.00,Wunderground v.1.15,2013-01-09 05:35:00,
2013-01-09 00:45:00,61.7,60.0,30.24,NNW,329,0.0,0.0,94,0.00,,,0.00,Wunderground v.1.15,2013-01-09 05:45:00,
2013-01-09 00:55:00,61.8,60.1,30.24,NNW,329,0.0,0.0,94,0.00,,,0.00,Wunderground v.1.15,2013-01-09 05:55:00,
2013-01-09 01:05:00,61.9,60.2,30.24,NNW,329,0.0,0.0,94,0.00,,,0.00,Wunderground v.1.15,2013-01-09 06:05:00,
2013-01-09 01:15:00,61.9,60.2,30.24,NNW,329,0.0,0.0,94,0.00,,,0.00,Wunderground v.1.15,2013-01-09 06:15:00,
2013-01-09 01:25:00,62.0,60.6,30.24,NNW,329,0.0,0.0,95,0.00,,,0.00,Wunderground v.1.15,2013-01-09 06:25:00,
2013-01-09 01:35:00,62.2,60.8,30.24,NNW,327,0.0,5.0,95,0.00,,,0.00,Wunderground v.1.15,2013-01-09 06:35:00,
2013-01-09 01:45:00,62.4,60.9,30.24,North,355,0.0,0.0,95,0.00,,,0.00,Wunderground v.1.15,2013-01-09 06:45:00,
2013-01-09 01:55:00,62.6,61.1,30.24,North,350,0.0,0.0,95,0.00,,,0.00,Wunderground v.1.15,2013-01-09 06:55:00,
2013-01-09 02:05:00,62.7,61.2,30.24,North,350,0.0,0.0,95,0.00,,,0.00,Wunderground v.1.15,2013-01-09 07:05:00,
2013-01-09 02:15:00,62.7,61.2,30.24,North,350,0.0,0.0,95,0.00,,,0.00,Wunderground v.1.15,2013-01-09 07:15:00,
2013-01-09 02:20:00,62.7,61.2,30.24,North,350,0.0,0.0,95,0.00,,,0.00,Wunderground v.1.15,2013-01-09 07:20:00,
2013-01-09 02:30:00,62.7,61.2,30.24,North,350,0.0,0.0,95,0.00,,,0.00,Wunderground v.1.15,2013-01-09 07:30:00,
2013-01-09 02:35:00,62.7,61.2,30.24,North,350,0.0,0.0,95,0.00,,,0.00,Wunderground v.1.15,2013-01-09 07:35:00,
2013-01-09 02:45:00,62.4,60.9,30.24,North,350,0.0,0.0,95,0.00,,,0.00,Wunderground v.1.15,2013-01-09 07:45:00,
2013-01-09 02:50:00,62.3,60.8,30.23,North,350,0.0,0.0,95,0.00,,,0.00,Wunderground v.1.15,2013-01-09 07:50:00,
2013-01-09 03:00:00,62.4,60.9,30.23,North,350,0.0,0.0,95,0.00,,,0.00,Wunderground v.1.15,2013-01-09 08:00:00,
2013-01-09 03:05:00,62.4,60.9,30.23,North,350,0.0,0.0,95,0.00,,,0.00,Wunderground v.1.15,2013-01-09 08:05:00,
2013-01-09 03:15:00,62.3,60.8,30.23,North,350,0.0,0.0,95,0.00,,,0.00,Wunderground v.1.15,2013-01-09 08:15:00,
2013-01-09 03:25:00,62.2,60.8,30.23,North,350,0.0,0.0,95,0.00,,,0.00,Wunderground v.1.15,2013-01-09 08:25:00,
2013-01-09 03:35:00,62.1,60.7,30.23,North,350,0.0,0.0,95,0.00,,,0.00,Wunderground v.1.15,2013-01-09 08:35:00,
2013-01-09 03:45:00,62.1,60.7,30.23,North,350,0.0,0.0,95,0.00,,,0.00,Wunderground v.1.15,2013-01-09 08:45:00,
2013-01-09 03:55:00,62.0,60.6,30.23,North,350,0.0,0.0,95,0.00,,,0.00,Wunderground v.1.15,2013-01-09 08:55:00,
2013-01-09 04:05:00,61.9,60.5,30.23,North,350,0.0,0.0,95,0.00,,,0.00,Wunderground v.1.15,2013-01-09 09:05:00,
2013-01-09 04:15:00,61.8,60.4,30.23,North,350,0.0,0.0,95,0.00,,,0.00,Wunderground v.1.15,2013-01-09 09:15:00,
2013-01-09 04:25:00,61.8,60.4,30.23,North,350,0.0,0.0,95,0.00,,,0.00,Wunderground v.1.15,2013-01-09 09:25:00,
2013-01-09 04:35:00,61.7,60.3,30.23,North,350,0.0,0.0,95,0.00,,,0.00,Wunderground v.1.15,2013-01-09 09:35:00,
2013-01-09 04:45:00,61.6,60.2,30.23,North,350,0.0,0.0,95,0.00,,,0.00,Wunderground v.1.15,2013-01-09 09:45:00,
2013-01-09 04:50:00,61.5,60.1,30.23,North,350,0.0,0.0,95,0.00,,,0.00,Wunderground v.1.15,2013-01-09 09:50:00,
2013-01-09 05:00:00,61.5,60.1,30.24,North,350,0.0,0.0,95,0.00,,,0.00,Wunderground v.1.15,2013-01-09 10:00:00,
2013-01-09 05:05:00,61.5,60.1,30.24,North,350,0.0,0.0,95,0.00,,,0.00,Wunderground v.1.15,2013-01-09 10:05:00,
2013-01-09 05:15:00,61.5,60.1,30.24,North,350,0.0,0.0,95,0.00,,,0.00,Wunderground v.1.15,2013-01-09 10:15:00,
2013-01-09 05:25:00,61.4,60.0,30.24,North,351,0.0,0.0,95,0.00,,,0.00,Wunderground v.1.15,2013-01-09 10:25:00,
2013-01-09 05:35:00,61.5,60.1,30.24,North,351,0.0,0.0,95,0.00,,,0.00,Wunderground v.1.15,2013-01-09 10:35:00,
2013-01-09 05:40:00,61.6,60.2,30.24,North,351,0.0,0.0,95,0.00,,,0.00,Wunderground v.1.15,2013-01-09 10:40:00,
2013-01-09 05:50:00,61.6,60.2,30.24,North,351,0.0,0.0,95,0.00,,,0.00,Wunderground v.1.15,2013-01-09 10:50:00,
2013-01-09 06:00:00,61.6,60.2,30.24,North,351,0.0,0.0,95,0.00,,,0.00,Wunderground v.1.15,2013-01-09 11:00:00,
2013-01-09 06:05:00,61.6,60.2,30.24,North,351,0.0,0.0,95,0.00,,,0.00,Wunderground v.1.15,2013-01-09 11:05:00,
2013-01-09 06:15:00,61.5,60.1,30.24,North,355,0.0,0.0,95,0.00,,,0.00,Wunderground v.1.15,2013-01-09 11:15:00,
2013-01-09 06:25:00,61.3,59.9,30.25,North,355,0.0,0.0,95,0.00,,,0.00,Wunderground v.1.15,2013-01-09 11:25:00,
2013-01-09 06:35:00,61.3,59.9,30.25,North,355,0.0,0.0,95,0.00,,,0.00,Wunderground v.1.15,2013-01-09 11:35:00,
2013-01-09 06:45:00,61.4,60.0,30.25,North,355,0.0,0.0,95,0.00,,,0.00,Wunderground v.1.15,2013-01-09 11:45:00,
2013-01-09 06:50:00,61.4,60.0,30.25,North,355,0.0,0.0,95,0.00,,,0.00,Wunderground v.1.15,2013-01-09 11:50:00,
2013-01-09 07:00:00,61.4,60.0,30.26,North,355,0.0,0.0,95,0.00,,,0.00,Wunderground v.1.15,2013-01-09 12:00:00,
2013-01-09 07:05:00,61.4,60.0,30.26,North,355,0.0,0.0,95,0.00,,,0.00,Wunderground v.1.15,2013-01-09 12:05:00,
2013-01-09 07:15:00,61.4,60.0,30.27,North,355,0.0,0.0,95,0.00,,,0.00,Wunderground v.1.15,2013-01-09 12:15:00,
2013-01-09 07:25:00,61.4,60.0,30.27,North,355,0.0,0.0,95,0.00,,,0.00,Wunderground v.1.15,2013-01-09 12:25:00,
2013-01-09 07:35:00,61.3,59.9,30.28,North,355,0.0,0.0,95,0.00,,,0.00,Wunderground v.1.15,2013-01-09 12:35:00,
2013-01-09 07:40:00,61.3,59.9,30.28,North,355,0.0,0.0,95,0.00,,,0.00,Wunderground v.1.15,2013-01-09 12:40:00,
2013-01-09 07:50:00,61.4,60.0,30.28,North,355,0.0,0.0,95,0.00,,,0.00,Wunderground v.1.15,2013-01-09 12:50:00,
2013-01-09 08:00:00,61.6,60.4,30.29,North,355,0.0,0.0,96,0.00,,,0.00,Wunderground v.1.15,2013-01-09 13:00:00,
2013-01-09 08:05:00,61.7,60.5,30.29,North,355,0.0,0.0,96,0.00,,,0.00,Wunderground v.1.15,2013-01-09 13:05:00,
2013-01-09 08:15:00,61.7,60.5,30.29,North,355,0.0,0.0,96,0.00,,,0.00,Wunderground v.1.15,2013-01-09 13:15:00,
2013-01-09 08:25:00,61.6,60.4,30.30,NE,34,0.0,0.0,96,0.00,,,0.00,Wunderground v.1.15,2013-01-09 13:25:00,
2013-01-09 08:35:00,61.8,60.6,30.30,NE,37,0.0,0.0,96,0.00,,,0.00,Wunderground v.1.15,2013-01-09 13:35:00,
2013-01-09 08:45:00,61.9,60.7,30.31,NE,37,0.0,0.0,96,0.00,,,0.00,Wunderground v.1.15,2013-01-09 13:45:00,
2013-01-09 08:50:00,62.0,60.8,30.31,NE,37,0.0,0.0,96,0.00,,,0.00,Wunderground v.1.15,2013-01-09 13:50:00,
2013-01-09 09:00:00,62.0,60.8,30.31,NE,37,0.0,0.0,96,0.00,,,0.00,Wunderground v.1.15,2013-01-09 14:00:00,
2013-01-09 09:05:00,62.0,60.8,30.31,NE,37,0.0,0.0,96,0.00,,,0.00,Wunderground v.1.15,2013-01-09 14:05:00,
2013-01-09 09:15:00,62.1,60.9,30.32,NE,40,0.0,0.0,96,0.00,,,0.00,Wunderground v.1.15,2013-01-09 14:15:00,
2013-01-09 09:25:00,62.3,61.1,30.32,NE,40,0.0,0.0,96,0.00,,,0.00,Wunderground v.1.15,2013-01-09 14:25:00,
2013-01-09 09:35:00,62.7,61.5,30.33,NE,39,0.0,0.0,96,0.00,,,0.00,Wunderground v.1.15,2013-01-09 14:35:00,
2013-01-09 09:45:00,63.1,61.9,30.33,NNW,338,0.0,0.0,96,0.00,,,0.00,Wunderground v.1.15,2013-01-09 14:45:00,
2013-01-09 09:55:00,63.5,62.3,30.33,NNE,12,0.0,0.0,96,0.00,,,0.00,Wunderground v.1.15,2013-01-09 14:55:00,
2013-01-09 10:05:00,63.6,62.4,30.33,NNW,346,0.0,0.0,96,0.00,,,0.00,Wunderground v.1.15,2013-01-09 15:05:00,
2013-01-09 10:10:00,63.6,62.4,30.33,North,349,0.0,0.0,96,0.00,,,0.00,Wunderground v.1.15,2013-01-09 15:10:00,
2013-01-09 10:20:00,63.8,62.6,30.33,North,350,0.0,0.0,96,0.00,,,0.00,Wunderground v.1.15,2013-01-09 15:20:00,
2013-01-09 10:30:00,64.5,63.3,30.33,North,355,0.0,0.0,96,0.00,,,0.00,Wunderground v.1.15,2013-01-09 15:30:00,
2013-01-09 10:35:00,64.9,63.7,30.33,North,351,0.0,0.0,96,0.00,,,0.00,Wunderground v.1.15,2013-01-09 15:35:00,
2013-01-09 10:45:00,65.6,64.4,30.32,NNE,25,0.0,0.0,96,0.00,,,0.00,Wunderground v.1.15,2013-01-09 15:45:00,
2013-01-09 10:50:00,65.9,64.7,30.32,East,82,0.0,0.0,96,0.00,,,0.00,Wunderground v.1.15,2013-01-09 15:50:00,
2013-01-09 11:00:00,66.1,64.3,30.32,East,82,0.0,0.0,94,0.00,,,0.00,Wunderground v.1.15,2013-01-09 16:00:00,
2013-01-09 11:05:00,66.3,64.5,30.32,East,82,0.0,0.0,94,0.00,,,0.00,Wunderground v.1.15,2013-01-09 16:05:00,
2013-01-09 11:15:00,67.0,64.9,30.32,East,82,0.0,0.0,93,0.00,,,0.00,Wunderground v.1.15,2013-01-09 16:15:00,
2013-01-09 11:20:00,67.6,65.5,30.32,East,82,0.0,1.0,93,0.00,,,0.00,Wunderground v.1.15,2013-01-09 16:20:00,
2013-01-09 11:30:00,68.2,65.5,30.32,East,82,0.0,0.0,91,0.00,,,0.00,Wunderground v.1.15,2013-01-09 16:30:00,
2013-01-09 11:35:00,68.4,65.7,30.31,East,82,0.0,0.0,91,0.00,,,0.00,Wunderground v.1.15,2013-01-09 16:35:00,
2013-01-09 11:45:00,69.1,66.4,30.31,East,82,0.0,0.0,91,0.00,,,0.00,Wunderground v.1.15,2013-01-09 16:45:00,
2013-01-09 11:55:00,70.1,66.7,30.30,East,86,0.0,0.0,89,0.00,,,0.00,Wunderground v.1.15,2013-01-09 16:55:00,
2013-01-09 12:05:00,70.4,67.0,30.30,East,86,0.0,0.0,89,0.00,,,0.00,Wunderground v.1.15,2013-01-09 17:05:00,
2013-01-09 12:10:00,70.6,67.2,30.29,East,90,0.0,0.0,89,0.00,,,0.00,Wunderground v.1.15,2013-01-09 17:10:00,
2013-01-09 12:20:00,71.2,67.5,30.29,East,81,1.0,1.0,88,0.00,,,0.00,Wunderground v.1.15,2013-01-09 17:20:00,
2013-01-09 12:30:00,71.5,67.4,30.29,East,84,0.0,0.0,87,0.00,,,0.00,Wunderground v.1.15,2013-01-09 17:30:00,
2013-01-09 12:35:00,71.4,67.7,30.29,East,84,0.0,0.0,88,0.00,,,0.00,Wunderground v.1.15,2013-01-09 17:35:00,
2013-01-09 12:45:00,71.1,67.7,30.28,East,92,0.0,4.0,89,0.00,,,0.00,Wunderground v.1.15,2013-01-09 17:45:00,
2013-01-09 12:55:00,71.4,68.0,30.27,East,94,0.0,0.0,89,0.00,,,0.00,Wunderground v.1.15,2013-01-09 17:55:00,
2013-01-09 13:05:00,71.9,68.2,30.27,East,91,1.0,2.0,88,0.00,,,0.00,Wunderground v.1.15,2013-01-09 18:05:00,
2013-01-09 13:15:00,72.1,68.3,30.27,East,94,1.0,1.0,88,0.00,,,0.00,Wunderground v.1.15,2013-01-09 18:15:00,
2013-01-09 13:20:00,72.2,68.4,30.27,East,94,1.0,1.0,88,0.00,,,0.00,Wunderground v.1.15,2013-01-09 18:20:00,
2013-01-09 13:30:00,72.8,68.7,30.27,East,80,0.0,0.0,87,0.00,,,0.00,Wunderground v.1.15,2013-01-09 18:30:00,
2013-01-09 13:35:00,72.9,68.8,30.27,East,88,0.0,1.0,87,0.00,,,0.00,Wunderground v.1.15,2013-01-09 18:35:00,
2013-01-09 13:45:00,73.2,69.1,30.26,NNE,32,1.0,1.0,87,0.00,,,0.00,Wunderground v.1.15,2013-01-09 18:45:00,
2013-01-09 13:50:00,73.4,69.0,30.26,NE,53,0.0,0.0,86,0.00,,,0.00,Wunderground v.1.15,2013-01-09 18:50:00,
2013-01-09 14:00:00,73.7,69.2,30.26,ENE,62,0.0,0.0,86,0.00,,,0.00,Wunderground v.1.15,2013-01-09 19:00:00,
2013-01-09 14:05:00,73.7,69.2,30.26,ENE,63,0.0,0.0,86,0.00,,,0.00,Wunderground v.1.15,2013-01-09 19:05:00,
2013-01-09 14:10:00,73.8,69.3,30.26,NE,42,0.0,0.0,86,0.00,,,0.00,Wunderground v.1.15,2013-01-09 19:10:00,
2013-01-09 14:20:00,73.8,69.3,30.26,NNE,31,0.0,0.0,86,0.00,,,0.00,Wunderground v.1.15,2013-01-09 19:20:00,
2013-01-09 14:30:00,73.9,69.4,30.26,ENE,59,0.0,0.0,86,0.00,,,0.00,Wunderground v.1.15,2013-01-09 19:30:00,
2013-01-09 14:35:00,74.0,69.5,30.26,ENE,59,0.0,0.0,86,0.00,,,0.00,Wunderground v.1.15,2013-01-09 19:35:00,
2013-01-09 14:45:00,74.4,69.6,30.26,ENE,71,1.0,1.0,85,0.00,,,0.00,Wunderground v.1.15,2013-01-09 19:45:00,
2013-01-09 14:55:00,74.3,69.5,30.26,East,90,1.0,1.0,85,0.00,,,0.00,Wunderground v.1.15,2013-01-09 19:55:00,
2013-01-09 15:00:00,74.1,69.6,30.26,East,91,1.0,2.0,86,0.00,,,0.00,Wunderground v.1.15,2013-01-09 20:00:00,
2013-01-09 15:10:00,73.5,68.7,30.27,East,93,2.0,2.0,85,0.00,,,0.00,Wunderground v.1.15,2013-01-09 20:10:00,
2013-01-09 15:20:00,72.6,68.2,30.26,East,95,0.0,1.0,86,0.00,,,0.00,Wunderground v.1.15,2013-01-09 20:20:00,
2013-01-09 15:25:00,72.6,68.8,30.26,East,88,0.0,4.0,88,0.00,,,0.00,Wunderground v.1.15,2013-01-09 20:25:00,
2013-01-09 15:35:00,73.0,68.9,30.27,East,93,1.0,4.0,87,0.00,,,0.00,Wunderground v.1.15,2013-01-09 20:35:00,
2013-01-09 15:45:00,73.0,68.9,30.27,East,93,1.0,2.0,87,0.00,,,0.00,Wunderground v.1.15,2013-01-09 20:45:00,
2013-01-09 15:55:00,72.8,68.7,30.27,East,96,0.0,1.0,87,0.00,,,0.00,Wunderground v.1.15,2013-01-09 20:55:00,
2013-01-09 16:05:00,72.7,68.6,30.27,East,94,1.0,1.0,87,0.00,,,0.00,Wunderground v.1.15,2013-01-09 21:05:00,
2013-01-09 16:10:00,72.6,68.5,30.27,East,94,0.0,1.0,87,0.00,,,0.00,Wunderground v.1.15,2013-01-09 21:10:00,
2013-01-09 16:20:00,72.2,68.4,30.27,East,94,0.0,1.0,88,0.00,,,0.00,Wunderground v.1.15,2013-01-09 21:20:00,
2013-01-09 16:30:00,71.9,68.2,30.28,East,94,0.0,1.0,88,0.00,,,0.00,Wunderground v.1.15,2013-01-09 21:30:00,
2013-01-09 16:35:00,71.7,68.0,30.28,East,92,0.0,7.0,88,0.00,,,0.00,Wunderground v.1.15,2013-01-09 21:35:00,
2013-01-09 16:40:00,71.4,67.7,30.28,East,89,1.0,2.0,88,0.00,,,0.00,Wunderground v.1.15,2013-01-09 21:40:00,
2013-01-09 16:50:00,70.8,67.4,30.28,East,92,2.0,2.0,89,0.00,,,0.00,Wunderground v.1.15,2013-01-09 21:50:00,
2013-01-09 17:00:00,70.1,66.7,30.28,ESE,104,2.0,2.0,89,0.00,,,0.00,Wunderground v.1.15,2013-01-09 22:00:00,
2013-01-09 17:05:00,69.7,66.6,30.28,East,94,1.0,2.0,90,0.00,,,0.00,Wunderground v.1.15,2013-01-09 22:05:00,
2013-01-09 17:15:00,69.1,66.0,30.28,East,89,0.0,1.0,90,0.00,,,0.00,Wunderground v.1.15,2013-01-09 22:15:00,
2013-01-09 17:25:00,67.9,64.9,30.29,East,88,2.0,4.0,90,0.00,,,0.00,Wunderground v.1.15,2013-01-09 22:25:00,
2013-01-09 17:35:00,66.8,64.1,30.29,East,84,3.0,4.0,91,0.00,,,0.00,Wunderground v.1.15,2013-01-09 22:35:00,
2013-01-09 17:45:00,66.1,63.7,30.29,East,80,2.0,4.0,92,0.00,,,0.00,Wunderground v.1.15,2013-01-09 22:45:00,
2013-01-09 17:55:00,65.7,63.3,30.30,East,86,0.0,1.0,92,0.00,,,0.00,Wunderground v.1.15,2013-01-09 22:55:00,
2013-01-09 18:05:00,65.4,63.3,30.30,East,85,0.0,0.0,93,0.00,,,0.00,Wunderground v.1.15,2013-01-09 23:05:00,
2013-01-09 18:15:00,65.3,63.2,30.30,ENE,74,0.0,1.0,93,0.00,,,0.00,Wunderground v.1.15,2013-01-09 23:15:00,
2013-01-09 18:25:00,65.2,63.1,30.30,East,97,0.0,0.0,93,0.00,,,0.00,Wunderground v.1.15,2013-01-09 23:25:00,
2013-01-09 18:35:00,65.2,63.1,30.31,East,91,0.0,0.0,93,0.00,,,0.00,Wunderground v.1.15,2013-01-09 23:35:00,
2013-01-09 18:40:00,65.2,63.1,30.31,East,91,0.0,0.0,93,0.00,,,0.00,Wunderground v.1.15,2013-01-09 23:40:00,
2013-01-09 18:50:00,64.9,62.8,30.32,East,94,0.0,0.0,93,0.00,,,0.00,Wunderground v.1.15,2013-01-09 23:50:00,
2013-01-09 19:00:00,64.8,62.7,30.32,East,94,0.0,0.0,93,0.00,,,0.00,Wunderground v.1.15,2013-01-10 00:00:00,
2013-01-09 19:05:00,64.7,62.6,30.32,East,94,0.0,0.0,93,0.00,,,0.00,Wunderground v.1.15,2013-01-10 00:05:00,
2013-01-09 19:15:00,64.6,62.8,30.32,East,94,0.0,0.0,94,0.00,,,0.00,Wunderground v.1.15,2013-01-10 00:15:00,
2013-01-09 19:25:00,64.7,62.9,30.32,East,93,0.0,0.0,94,0.00,,,0.00,Wunderground v.1.15,2013-01-10 00:25:00,
2013-01-09 19:35:00,64.7,62.9,30.32,East,94,0.0,0.0,94,0.00,,,0.00,Wunderground v.1.15,2013-01-10 00:35:00,
2013-01-09 19:45:00,64.7,62.9,30.32,East,94,0.0,0.0,94,0.00,,,0.00,Wunderground v.1.15,2013-01-10 00:45:00,
2013-01-09 19:50:00,64.7,62.9,30.32,East,94,0.0,0.0,94,0.00,,,0.00,Wunderground v.1.15,2013-01-10 00:50:00,
2013-01-09 20:00:00,64.7,62.9,30.32,East,94,0.0,0.0,94,0.00,,,0.00,Wunderground v.1.15,2013-01-10 01:00:00,
2013-01-09 20:05:00,64.6,62.8,30.32,East,84,0.0,0.0,94,0.00,,,0.00,Wunderground v.1.15,2013-01-10 01:05:00,
2013-01-09 20:15:00,64.7,62.9,30.32,East,86,0.0,0.0,94,0.00,,,0.00,Wunderground v.1.15,2013-01-10 01:15:00,
2013-01-09 20:25:00,64.7,62.9,30.32,ENE,63,0.0,0.0,94,0.00,,,0.00,Wunderground v.1.15,2013-01-10 01:25:00,
2013-01-09 20:35:00,64.8,63.0,30.32,ENE,69,0.0,0.0,94,0.00,,,0.00,Wunderground v.1.15,2013-01-10 01:35:00,
2013-01-09 20:45:00,64.7,62.9,30.33,ENE,69,0.0,0.0,94,0.00,,,0.00,Wunderground v.1.15,2013-01-10 01:45:00,
2013-01-09 20:55:00,64.8,63.0,30.33,East,79,0.0,0.0,94,0.00,,,0.00,Wunderground v.1.15,2013-01-10 01:55:00,
2013-01-09 21:05:00,64.9,63.4,30.33,East,79,0.0,0.0,95,0.00,,,0.00,Wunderground v.1.15,2013-01-10 02:05:00,
2013-01-09 21:10:00,64.9,63.4,30.33,East,84,0.0,0.0,95,0.00,,,0.00,Wunderground v.1.15,2013-01-10 02:10:00,
2013-01-09 21:20:00,64.9,63.4,30.33,East,87,1.0,1.0,95,0.00,,,0.00,Wunderground v.1.15,2013-01-10 02:20:00,
2013-01-09 21:30:00,65.0,63.5,30.33,ESE,105,1.0,1.0,95,0.00,,,0.00,Wunderground v.1.15,2013-01-10 02:30:00,
2013-01-09 21:35:00,65.1,63.6,30.33,ESE,104,0.0,1.0,95,0.00,,,0.00,Wunderground v.1.15,2013-01-10 02:35:00,
2013-01-09 21:45:00,65.0,63.5,30.33,ESE,103,0.0,0.0,95,0.00,,,0.00,Wunderground v.1.15,2013-01-10 02:45:00,
2013-01-09 21:55:00,64.8,63.3,30.33,ESE,103,0.0,0.0,95,0.00,,,0.00,Wunderground v.1.15,2013-01-10 02:55:00,
2013-01-09 22:05:00,64.6,62.8,30.33,ESE,103,0.0,0.0,94,0.00,,,0.00,Wunderground v.1.15,2013-01-10 03:05:00,
2013-01-09 22:15:00,64.6,63.1,30.33,East,101,0.0,0.0,95,0.00,,,0.00,Wunderground v.1.15,2013-01-10 03:15:00,
2013-01-09 22:20:00,64.7,63.2,30.33,East,101,0.0,0.0,95,0.00,,,0.00,Wunderground v.1.15,2013-01-10 03:20:00,
2013-01-09 22:30:00,64.9,63.4,30.33,East,101,0.0,0.0,95,0.00,,,0.00,Wunderground v.1.15,2013-01-10 03:30:00,
2013-01-09 22:35:00,64.9,63.4,30.33,East,101,0.0,0.0,95,0.00,,,0.00,Wunderground v.1.15,2013-01-10 03:35:00,
2013-01-09 22:45:00,65.0,63.5,30.33,East,101,0.0,0.0,95,0.00,,,0.00,Wunderground v.1.15,2013-01-10 03:45:00,
2013-01-09 22:55:00,65.1,63.6,30.33,East,101,0.0,0.0,95,0.00,,,0.00,Wunderground v.1.15,2013-01-10 03:55:00,
2013-01-09 23:05:00,65.3,63.8,30.33,East,101,0.0,0.0,95,0.00,,,0.00,Wunderground v.1.15,2013-01-10 04:05:00,
2013-01-09 23:10:00,65.0,63.5,30.33,East,101,0.0,0.0,95,0.00,,,0.00,Wunderground v.1.15,2013-01-10 04:10:00,
2013-01-09 23:20:00,64.6,62.8,30.33,East,101,0.0,0.0,94,0.00,,,0.00,Wunderground v.1.15,2013-01-10 04:20:00,
2013-01-09 23:30:00,64.5,63.0,30.33,East,101,0.0,0.0,95,0.00,,,0.00,Wunderground v.1.15,2013-01-10 04:30:00,
2013-01-09 23:35:00,64.7,63.2,30.34,East,101,0.0,0.0,95,0.00,,,0.00,Wunderground v.1.15,2013-01-10 04:35:00,
2013-01-09 23:45:00,65.1,63.6,30.34,East,101,0.0,0.0,95,0.00,,,0.00,Wunderground v.1.15,2013-01-10 04:45:00,
2013-01-09 23:55:00,65.6,64.4,30.34,East,101,0.0,0.0,96,0.00,,,0.00,Wunderground v.1.15,2013-01-10 04:55:00,